ED1ZAI-13 Weather Reports


time (UTC)temp
F
wind
direction
speed
knots
gust
knots
rain 1hr
in
rain 24hr
in
rain mn
in
humidity
%
barometer
mb
20260510183250 54 83 0.0 1.7 0.04 0.26 0.26 79 1009.9
20260510182250 47 353 1.7 4.3 0.02 0.24 0.24 84 1010.2
20260510181250 48 92 0.9 2.6 0.00 0.22 0.22 82 1010.3
20260510180250 49 268 0.0 2.6 0.00 0.22 0.22 83 1010.1
20260510175250 49 215 0.0 2.6 0.00 0.22 0.22 82 1009.9
20260510174249 49 225 0.0 4.3 0.00 0.22 0.22 83 1010.0
20260510173249 47 233 1.7 4.3 0.02 0.22 0.22 83 1009.7
20260510172249 47 98 3.5 7.0 0.02 0.22 0.22 84 1009.6
20260510171248 47 222 3.5 6.1 0.02 0.22 0.22 81 1009.4
20260510170946 49 131 2.6 6.1 0.04 0.22 0.22 80 1009.3
20260510165946 50 210 2.6 5.2 0.06 0.22 0.22 80 1009.5
20260510164945 49 209 1.7 5.2 0.06 0.22 0.22 85 1009.7
20260510163945 46 96 3.5 7.8 0.04 0.20 0.20 88 1010.2
20260510162944 47 214 5.2 8.7 0.04 0.20 0.20 86 1010.5
20260510161946 48 209 2.6 5.2 0.04 0.24 0.20 83 1010.0
20260510160945 49 86 1.7 3.5 0.04 0.33 0.20 81 1009.4
20260510155945 48 218 1.7 3.5 0.02 0.31 0.18 82 1009.8
20260510154945 51 205 0.9 2.6 0.00 0.30 0.16 77 1009.6
20260510153945 53 222 0.0 0.9 0.00 0.30 0.16 71 1009.6
20260510152944 53 213 0.9 1.7 0.00 0.30 0.16 69 1009.4
20260510151946 54 221 0.0 1.7 0.00 0.30 0.16 68 1009.4
20260510150946 55 211 0.0 3.5 0.00 0.30 0.16 67 1009.5
20260510145946 49 217 0.9 2.6 0.00 0.30 0.16 79 1010.1
20260510144945 49 219 0.9 4.3 0.00 0.30 0.16 77 1010.0
20260510143945 51 285 0.9 3.5 0.00 0.30 0.16 77 1009.9
20260510142945 50 265 2.6 5.2 0.00 0.30 0.16 79 1010.2
20260510141946 49 297 2.6 5.2 0.00 0.30 0.16 78 1010.2
20260510140946 49 272 3.5 6.1 0.00 0.30 0.16 78 1010.5
20260510135946 51 249 1.7 3.5 0.00 0.30 0.16 80 1010.4
20260510134945 48 300 3.5 6.1 0.00 0.30 0.16 81 1010.7
20260510133945 48 217 1.7 4.3 0.08 0.30 0.16 80 1010.7
20260510132945 48 244 2.6 6.1 0.08 0.30 0.16 79 1010.5
20260510131945 49 265 3.5 7.0 0.08 0.30 0.16 82 1010.4
20260510130946 49 266 3.5 6.1 0.08 0.30 0.16 82 1010.3
20260510125945 51 240 2.6 4.3 0.08 0.30 0.16 84 1010.3
20260510124945 49 163 3.5 7.8 0.08 0.30 0.16 88 1010.9
20260510123944 47 229 3.5 7.8 0.04 0.14 0.12 89 1011.1
20260510122946 47 214 6.1 7.8 0.00 0.22 0.08 87 1010.7
20260510121946 48 210 5.2 8.7 0.00 0.22 0.08 78 1010.0
20260510120945 51 231 4.3 6.1 0.00 0.22 0.08 70 1009.7
20260510115945 51 89 4.3 6.1 0.00 0.22 0.08 69 1009.5
20260510114945 53 109 4.3 7.0 0.00 0.22 0.08 64 1009.5
20260510113946 54 91 2.6 6.1 0.00 0.22 0.08 62 1009.4
20260510112946 54 230 3.5 6.1 0.00 0.22 0.08 61 1009.4
20260510111945 54 234 2.6 7.0 0.00 0.22 0.08 61 1009.7
20260510110945 53 84 3.5 7.8 0.00 0.22 0.08 62 1009.7
20260510105945 57 171 1.7 3.5 0.00 0.22 0.08 60 1009.8
20260510104945 54 272 2.6 4.3 0.00 0.22 0.08 63 1010.0
20260510103945 54 101 4.3 6.1 0.00 0.22 0.08 61 1010.1
20260510102945 52 93 4.3 6.1 0.00 0.22 0.08 67 1010.2
20260510101946 53 229 2.6 4.3 0.00 0.22 0.08 61 1010.2
20260510100946 53 146 3.5 6.1 0.00 0.22 0.08 62 1010.2
20260510095946 52 99 4.3 7.8 0.00 0.22 0.08 64 1010.3
20260510094945 52 222 4.3 7.0 0.00 0.22 0.08 64 1010.4
20260510093945 52 154 3.5 5.2 0.00 0.22 0.08 67 1010.6
20260510092945 51 222 2.6 5.2 0.00 0.22 0.08 72 1010.6
20260510091946 51 220 1.7 3.5 0.00 0.22 0.08 74 1010.6
20260510090946 50 209 2.6 6.1 0.00 0.22 0.08 77 1010.6
20260510085946 49 189 3.5 5.2 0.00 0.22 0.08 76 1010.7
20260510084946 49 208 2.6 5.2 0.00 0.22 0.08 79 1010.8
20260510083945 50 87 2.6 5.2 0.00 0.22 0.08 79 1010.9
20260510082945 50 216 1.7 3.5 0.00 0.22 0.08 79 1011.0
20260510081945 50 87 1.7 3.5 0.00 0.22 0.08 78 1010.9
20260510080944 49 218 1.7 3.5 0.00 0.22 0.08 81 1011.0
20260510075946 49 200 1.7 3.5 0.00 0.22 0.08 81 1011.0
20260510074946 49 119 1.7 3.5 0.00 0.22 0.08 81 1011.0
20260510073945 49 172 1.7 2.6 0.00 0.22 0.08 83 1010.9
20260510072945 48 101 1.7 2.6 0.00 0.22 0.08 83 1010.9
20260510071946 48 209 0.9 2.6 0.00 0.22 0.08 86 1011.0
20260510070945 47 230 0.9 2.6 0.02 0.22 0.08 87 1011.0
20260510065945 46 222 0.9 2.6 0.02 0.22 0.08 88 1011.1
20260510064945 46 222 0.9 2.6 0.02 0.22 0.08 88 1011.1
20260510063946 46 195 0.9 2.6 0.02 0.22 0.08 87 1010.8
20260510062945 46 222 0.9 1.7 0.02 0.22 0.08 88 1010.7
20260510061945 46 221 0.0 0.0 0.02 0.22 0.08 89 1010.7
20260510060944 45 222 0.9 3.5 0.00 0.20 0.06 89 1010.8
20260510055944 45 217 0.9 2.6 0.00 0.20 0.06 89 1010.7
20260510054943 45 226 0.9 3.5 0.00 0.20 0.06 90 1010.7
20260510053945 44 221 1.7 2.6 0.00 0.20 0.06 89 1010.5
20260510052944 45 216 0.9 2.6 0.00 0.20 0.06 89 1010.5
20260510051944 44 217 0.9 2.6 0.00 0.20 0.06 89 1010.5
20260510050945 44 224 1.7 2.6 0.00 0.20 0.06 89 1010.6
20260510045945 44 224 0.9 2.6 0.00 0.20 0.06 89 1010.6
20260510044945 44 224 0.9 2.6 0.00 0.20 0.06 88 1010.5
20260510043945 45 209 0.9 1.7 0.00 0.20 0.06 89 1010.6
20260510043448 45 209 0.9 1.7 0.00 0.20 0.06 89 1010.6
20260510042448 44 216 0.9 2.6 0.00 0.20 0.06 89 1010.6
20260510041448 44 226 0.9 1.7 0.00 0.20 0.06 90 1010.7
20260510040447 44 219 1.7 2.6 0.00 0.20 0.06 90 1010.7
20260510035447 44 217 1.7 2.6 0.00 0.20 0.06 89 1010.6
20260510034447 44 221 0.9 1.7 0.00 0.20 0.06 89 1010.6
20260510033447 44 215 1.7 2.6 0.00 0.20 0.06 89 1010.5
20260510032448 44 234 0.9 2.6 0.00 0.20 0.06 89 1010.5
20260510031448 45 214 0.9 2.6 0.00 0.20 0.06 88 1010.5
20260510030448 45 217 0.0 0.0 0.00 0.20 0.06 86 1010.5
20260510025447 46 216 0.0 0.0 0.00 0.20 0.06 86 1010.4
20260510024447 46 216 0.0 0.0 0.00 0.20 0.06 87 1010.6
20260510023447 46 217 0.0 0.0 0.00 0.20 0.06 88 1010.7
20260510022448 45 215 0.0 0.9 0.00 0.20 0.06 89 1010.8
20260510021448 45 215 0.0 0.9 0.00 0.20 0.06 89 1010.7
20260510020448 45 217 0.0 1.7 0.00 0.20 0.06 89 1010.8
20260510015448 45 220 0.9 2.6 0.00 0.20 0.06 91 1010.9
20260510014447 45 221 0.9 2.6 0.00 0.20 0.06 90 1011.0
20260510013447 45 218 0.0 0.9 0.00 0.20 0.06 90 1011.0
20260510012447 44 238 2.6 4.3 0.00 0.20 0.06 91 1011.2
20260510011448 45 213 1.7 2.6 0.00 0.20 0.06 90 1011.2
20260510010448 45 219 1.7 3.5 0.00 0.20 0.06 90 1011.3
20260510005448 45 218 1.7 2.6 0.00 0.20 0.06 89 1011.2
20260510004448 45 222 1.7 3.5 0.00 0.20 0.06 88 1011.2
20260510003447 46 220 0.9 2.6 0.00 0.20 0.06 86 1011.0
20260510002447 46 200 0.9 4.3 0.02 0.20 0.06 86 1010.9
20260510001447 46 256 0.9 3.5 0.04 0.20 0.06 86 1010.9
20260510000448 46 233 1.7 3.5 0.06 0.20 0.06 88 1011.1
20260509235448 46 218 2.6 6.1 0.06 0.20 0.06 88 1011.4
20260509234448 47 226 0.9 2.6 0.06 0.20 0.06 86 1011.4
20260509233447 47 220 0.9 2.6 0.06 0.20 0.06 87 1011.2
20260509232447 47 236 0.9 3.5 0.04 0.18 0.04 87 1011.4
20260509231447 47 274 1.7 3.5 0.04 0.18 0.04 88 1011.2
20260509230447 47 238 4.3 7.0 0.02 0.16 0.02 89 1011.4
20260509225447 49 93 4.3 7.0 0.00 0.14 0.00 84 1010.6
20260509224447 50 180 1.7 3.5 0.00 0.14 0.00 80 1010.4
20260509223447 51 83 0.0 2.6 0.00 0.14 0.00 78 1010.6
20260509222448 51 59 0.9 2.6 0.00 0.14 0.00 77 1010.4
20260509221448 50 152 2.6 6.1 0.00 0.14 0.00 81 1010.5
20260509220448 51 145 1.7 4.3 0.00 0.14 0.14 80 1010.4
20260509210448 51 159 1.7 3.5 0.00 0.14 0.14 79 1010.5
20260509205448 51 159 1.7 3.5 0.00 0.14 0.14 79 1010.5
20260509204448 52 160 0.0 2.6 0.00 0.14 0.14 79 1010.5
20260509203447 52 115 0.0 1.7 0.00 0.14 0.14 81 1010.5
20260509202447 51 141 1.7 3.5 0.00 0.14 0.14 81 1010.5
20260509201448 51 97 2.6 4.3 0.00 0.14 0.14 80 1010.2
20260509200447 52 143 2.6 3.5 0.00 0.14 0.14 80 1010.2
20260509195447 52 119 1.7 2.6 0.00 0.14 0.14 79 1010.0
20260509194447 52 111 2.6 4.3 0.00 0.14 0.14 80 1010.0
20260509193448 52 100 3.5 5.2 0.00 0.14 0.14 79 1009.9
20260509192448 53 95 2.6 5.2 0.00 0.14 0.14 75 1009.5
20260509191448 53 109 0.9 2.6 0.00 0.14 0.14 75 1009.6
20260509190448 53 122 0.9 3.5 0.00 0.14 0.14 76 1009.9
20260509185447 53 208 0.0 2.6 0.00 0.14 0.14 76 1009.7
20260509184447 53 99 0.9 2.6 0.00 0.14 0.14 75 1009.5